STARLINK-1434, 45712

Orbit data source: Space-Track

STARLINK-1434, 45712 is a payload satellite owned by SpaceX/Seattle (US) in LEO that was launched on Thu, 04 Jun 2020 UTC via an FALCON 9 launch vehicle from the Air Force Eastern Test Range (AFETR). Payload-class satellites include a variety of spacecraft equipped with specific instruments for various scientific and technological missions. These include communications satellites like Starlink; space stations such as the ISS; scientific satellites like the Hubble; Earth observation satellites from companies like Planet Labs, Umbra, and HawkEye 360; GPS; miniature CubeSats for education and research; and military/defense satellites.

Loading next visibility...
Identifier
45712, 2020-035BH
Orbit
LEO
Last TLE update
1 day ago
Origin
Manufacturer
SpaceX/Seattle
Mission
Operational Commercial Communications
Bus & Motor
STARLINK, Unknown motor
Mass
260 kg wet, ~248 kg dry
Launch date (UTC)
2020-06-04 (5 years ago)
Launch vehicle
FALCON 9
Launch site
Air Force Eastern Test Range (AFETR)
Object type
Payload
Rocket body
Debris
Shape & HBR
Box + 1 Pan, 8.86 m
Radar Cross Section
13.562 m², Large (>1 m²)

Expand to show TLE details & history

TLE from 1 day ago
0 STARLINK-1434
1 45712U 20035BH  25128.28342460  .00002623  00000-0  19509-3 0  9996
2 45712  53.0558 327.6399 0001714  71.4932 288.6244 15.06363993272713
Epoch: 2025-05-08T06:48Z
Definitive object data (Epoch: 2025-05-08T06:48:07.885Z)
Latitude
0.00005°
Longitude
-0.74906°
Altitude
547.822 km
Speed
7.589 km/s
True Right ascension
21h 50m 33s
True Declination
0° 00' 00"
Sunlit
Object was in daylight at TLE epoch
Visualization TLE readout
Latitude
-51.74341°
Longitude
-113.8987°
Altitude
566.425 km
Speed
7.577 km/s
Apparent Right ascension
08h 04m 29s
Apparent Declination
-77° 34' 46"
Sunlit
Object is in full shadow
Visualization observer readout
Local Sidereal Time
15:58:55
Azimuth
195.456° SSW
Elevation
-44.881°
Doppler factor
1
Orbital elements
Apogee altitude
548.779 km
Perigee altitude
546.405 km
Semi-major axis
6,925.729 km
Eccentricity
0.0001714
Inclination
53.0558°
RAAN
327.6399°
Arg. of periapsis
71.4932°
True anomaly
288.60579°
Mean anomaly
288.6244°
Eccentric anomaly
288.61509°
Mean motion
3.76569 °/min
BSTAR
0.00019509
Orbital period
95.6 mins
Loading maneuver chart data...
Loading SW <> Apogee altitude chart data...

STARLINK-1434 Visibility forecast

Observer location: undefined°, undefined°

Span
Click to sort rows by Start time (UTC) header in descending order
Start Az.
Max El. time (UTC)
Max El. Az.
Max El.
End time (UTC)
End Az.
6 mins2025-05-09 14:47:51.432Z184.235° SSW2025-05-09 14:50:51.432Z131.169° SE23.956°2025-05-09 14:53:51.432Z76.684° E
6 mins2025-05-09 16:27:51.432Z262.993° W2025-05-09 16:29:51.432Z308.648° NW34.335°2025-05-09 16:33:51.432Z38.799° NE
5 mins2025-05-09 21:29:51.432Z338.126° N2025-05-09 21:31:51.432Z22.42° NNE27.915°2025-05-09 21:34:51.432Z86.766° E
6 mins2025-05-09 23:08:51.432Z290.742° WNW2025-05-09 23:11:51.432Z218.136° SW33.33°2025-05-09 23:14:51.432Z159.48° S
|